Regional Weather Roundup
Issued by NWS

Home | Current Version | Previous Version | Text Only | Print | Product List | Glossary On
Versions: 1 2 3 4 5 6 7 8 9 10 11 12 13 14 15 16 17 18 19 20 21 22 23 24 25 26 27 28 29 30 31 32 33 34 35 36 37 38 39 40 41 42 43 44 45 46 47 48 49 50
095
ASUS43 KMPX 231701
RWRMN
WEATHER ROUNDUP FOR MINNESOTA
NATIONAL WEATHER SERVICE TWIN CITIES/CHANHASSEN MN
1100 AM CST THU NOV 23 2017


NOTE: "FAIR" INDICATES FEW OR NO CLOUDS BELOW 12,000 FEET WITH NO
SIGNIFICANT WEATHER AND/OR OBSTRUCTIONS TO VISIBILITY. N/A MEANS
CURRENT SKY AND/OR WEATHER CONDITIONS ARE NOT AVAILABLE.

MNZ060>063-068>070-231800-
   Twin Cities Metro

CITY           SKY/WX    TMP DP  RH WIND       PRES   REMARKS
TWIN CITIES    MOSUNNY   35  21  56 S3        29.95S
ST PAUL        SUNNY     36  19  50 CALM      29.96F
CRYSTAL        SUNNY     35  17  47 E3        29.93F
BLAINE         SUNNY     36  21  55 CALM      29.94S
LAKEVILLE      SUNNY     36  21  55 S3        29.94F
EDEN PRAIRIE   SUNNY     34  21  59 CALM      29.94S
SOUTH ST PAUL  SUNNY     36  20  52 CALM      29.95S
LAKE ELMO      FAIR      36  23  60 CALM      29.96S
$$
MNZ001>005-007-008-013>017-022>024-027-028-231800-
   Northwest Minnesota

CITY           SKY/WX    TMP DP  RH WIND       PRES   REMARKS
BEMIDJI        CLOUDY    24  23  96 SW6       29.83F FOG     WCI  17
HALLOCK        CLOUDY    28  27  93 SE9       29.78F FOG     WCI  20
ROSEAU         CLOUDY    25  21  86 S6        29.79F WCI  18
WARROAD        CLOUDY    25  21  86 CALM      29.80F
THIEF RVR FALL FOG       28  27  93 S12       29.82F VSB 1/2 WCI  18
CROOKSTON      CLOUDY    30  28  93 S12       29.82F FOG     WCI  21
FOSSTON        CLOUDY    27  25  93 SW7       29.84S FOG     WCI  19
DETROIT LAKES  FOG       28  28 100 SW7       29.86S VSB 3/4 WCI  21
MOORHEAD       CLOUDY    28  27  93 SE7       29.85F WCI  21
PARK RAPIDS    MOSUNNY   28  24  85 NW3       29.84F
MAHNOMEN       CLOUDY    27  26  97 SW8       29.84F WCI  19
$$
MNZ006-009>011-018-025>026-231800-
   North Central Minnesota

CITY           SKY/WX    TMP DP  RH WIND       PRES   REMARKS
BAUDETTE       CLOUDY    23  18  81 CALM      29.80F
FLAG ISLAND    CLOUDY    23  18  80 S6        29.79F WCI  16
INTL FALLS     CLOUDY    25  19  78 CALM      29.81F
WASKISH        CLOUDY    25  21  86 W7        29.83F WCI  17
BIG FORK       CLOUDY    28  21  74 S3        29.83F
LONGVILLE      MOSUNNY   28  19  69 SW3       29.86F
GRAND RAPIDS   SUNNY     34  20  56 W6        29.87F WCI  29
CRANE LAKE     CLOUDY    25  19  80 CALM      29.85F
ORR            PTSUNNY   27  16  63 CALM      29.80F
COOK           CLOUDY    25  18  74 SW3       29.84F
WALKER         FAIR      28  20  71 SW3       29.84F
$$
MNZ012-019>021-037-231800-
   Northeast Minnesota

CITY           SKY/WX    TMP DP  RH WIND       PRES   REMARKS
DULUTH         MOSUNNY   29  22  75 W7        29.85F WCI  22
ELY            CLOUDY    25  18  74 SW5       29.83F WCI  19
HIBBING        CLOUDY    25  18  74 SW3       29.85F
EVELETH        MOSUNNY   25  16  69 CALM      29.85F
DULUTH HARBOR  CLOUDY    30  25  80 SW7       29.90F WCI  23
TWO HARBORS    CLOUDY    34  25  69 W5        29.85S WCI  30
SILVER BAY     CLOUDY    30  21  69 CALM      29.85R
GRAND MARAIS     N/A     31  22  69 SW7       29.84F WCI  24
G MARAIS ARPRT CLOUDY    25  16  68 W5        29.78F WCI  19
$$
MNZ029>031-032-039>041-046>048-054>057-064-231800-
   West Central Minnesota

CITY           SKY/WX    TMP DP  RH WIND       PRES   REMARKS
FERGUS FALLS   SUNNY     30  19  64 SE8       29.89F WCI  23
WHEATON        SUNNY     37  21  52 S10       29.88F
MORRIS         SUNNY     36  21  55 S9        29.87F
ALEXANDRIA     SUNNY     34  22  61 S7        29.87F WCI  28
ELBOW LAKE     FAIR      32  21  64 S7        29.87F HAZE    WCI  26
WADENA         SUNNY     32  19  59 SW6       29.85F WCI  26
GLENWOOD       SUNNY     36  23  60 S8        29.87F
APPLETON       SUNNY     37  21  52 S8        29.90F
BENSON         SUNNY     36  21  55 SW7       29.91F
ORTONVILLE     CLOUDY    37  25  60 N8        29.87F
MADISON        CLOUDY    41  27  56 S10       29.90F
WILLMAR        FAIR      34  25  69 S3        29.92F
$$
MNZ033>034-036-042>043-049>051-058-059-231800-
   Central Minnesota

CITY           SKY/WX    TMP DP  RH WIND       PRES   REMARKS
ST CLOUD       SUNNY     34  20  56 S5        29.91F WCI  30
SAUK CENTRE    FAIR      35  23  61 S8        29.89F WCI  28
PAYNESVILLE    SUNNY     37  25  60 S3        29.91F
AITKIN         SUNNY     28  19  69 S3        29.87F
PINE RIVER     SUNNY     28  19  69 S3        29.90F
BRAINERD       SUNNY     29  19  66 SW3       29.89F
STAPLES        SUNNY     34  19  55 SW6       29.86F WCI  29
LITTLE FALLS   SUNNY     34  14  44 CALM      29.90F
LITCHFIELD     SUNNY     37  25  60 CALM      29.92F
BUFFALO        SUNNY     34  21  58 CALM      29.95S
MAPLE LAKE     SUNNY     37  24  59 CALM      29.93F
HUTCHINSON     SUNNY     36  23  60 CALM      29.94F
$$
MNZ037-044-045-052-053-231800-
   East Central Minnesota

CITY           SKY/WX    TMP DP  RH WIND       PRES   REMARKS
PRINCETON      SUNNY     37  21  52 CALM      29.92F
MORA           SUNNY     30  21  69 CALM      29.93F
CAMBRIDGE      SUNNY     36  21  55 CALM      29.93F
RUSH CITY      SUNNY     32  21  64 CALM      29.92F
MOOSE LAKE     SUNNY     32  23  69 CALM      29.87F
HINCKLEY       FAIR      32  25  74 CALM      29.91F
CLOQUET        CLOUDY    30  21  69 W6        29.86F WCI  24
MCGREGOR       SUNNY     32  21  64 W3        29.89F
$$
MNZ071>073-080-081-089-090-097-098-231800-
   Southwest Minnesota

CITY           SKY/WX    TMP DP  RH WIND       PRES   REMARKS
MONTEVIDEO     SUNNY     39  25  56 W5        29.91F
GRANITE FALLS  SUNNY     38  25  59 S6        29.94F
CANBY          MOSUNNY   44  31  60 SE3       29.92F
MARSHALL       CLOUDY    42  25  50 S5        29.93F
REDWOOD FALLS  SUNNY     37  22  54 SW6       29.94F
OLIVIA         SUNNY     36  25  64 SW5       29.92F
PIPESTONE      CLOUDY    39  27  60 SW5       29.93F
WINDOM         SUNNY     41  23  48 SW6       29.94F
WORTHINGTON    SUNNY     42  26  53 SW7       29.96S
JACKSON        SUNNY     39  25  56 CALM      29.95F
SLAYTON        CLOUDY    41  27  57 SW7       29.94F
$$
MNZ065>067-074>077-082>085-091>093-231800-
   South Central Minnesota

CITY           SKY/WX    TMP DP  RH WIND       PRES   REMARKS
MANKATO        SUNNY     34  20  56 SW3       29.96S
NEW ULM        SUNNY     36  21  55 CALM      29.95F
ST JAMES       SUNNY     37  25  60 SW3       29.96F
FAIRMONT       SUNNY     38  24  57 W3        29.96F
GLENCOE        SUNNY     36  23  60 CALM      29.94S
FARIBAULT      SUNNY     36  21  55 CALM      29.94F
OWATONNA       SUNNY     37  21  52 CALM      29.94F
WASECA         SUNNY     36  23  60 W5        29.96F
ALBERT LEA     SUNNY     37  19  48 CALM      29.94F
$$
MNZ078>079-086>088-094>096-231800-
   Southeast Minnesota

CITY           SKY/WX    TMP DP  RH WIND       PRES   REMARKS
ROCHESTER      SUNNY     37  21  52 W6        29.93S
RED WING       SUNNY     36  18  48 SW3       29.95S
STANTON        SUNNY     37  21  54 CALM      29.94F
DODGE CENTER   SUNNY     37  19  48 W3        29.93S
WINONA         SUNNY     36  23  60 CALM      29.96R
PRESTON        SUNNY     36  21  53 W5        29.93S
$$
ABBREVIATIONS USED IN REMARKS
   TC - TEMPERATURES IN CELSIUS
  WCI - WIND CHILL INDEX
   HX - HEAT INDEX
  VSB - VISIBILITY
$$




USA.gov is the U.S. government's official web portal to all federal, state and local government web resources and services.